Flag for Australia Weather past 2 weeks in Port Hedland, Western Australia, Australia

Now
61 °F

Sprinkles. Mostly cloudy.


Feels Like: 61 °F
Forecast: 65 / 78 °F
Wind: 20 mph from East

Location: Port Hedland Pardoo

Current Time: May 25, 2015 at 8:27:39 AM

Latest Report: May 25, 2015 at 8:00 AM


Visibility: N/A

Pressure: 30.04 "Hg

Humidity: 94%

Dew point: 59 °F

Location of Port HedlandLocation

Historic Weather in Port Hedland — Graph

°F

Port Hedland temperature yesterday

Maximum temperature yesterday: 73 °F (at 12:00 AM)
Minimum temperature yesterday: 64 °F (at 11:00 PM)
Average temperature yesterday: 69 °F

Past Weeks' High & Low Weather Summary

 TemperatureHumidityPressure
High91 °F (May 12, 2:00 PM)100% (May 10, 1:00 PM)30.21 "Hg (May 10, 1:00 PM)
Low52 °F (May 17, 5:30 AM)5% (May 15, 2:00 PM)29.92 "Hg (May 17, 2:00 PM)
Average73 °F51%30.03 "Hg
* Reported May 10 7:00 AM — May 25 7:30 AM, Port Hedland, Weather by CustomWeather, © 2015

Note: Actual official high and low records may vary slightly from our data, if they occured in-between our weather recording intervals... More about our weather records

Advertising

Port Hedland weather history for previous 24 hours

 ConditionsComfort  
Time TempWeatherWind HumidityBarometerVisibility
7:30 AM
Mon, May 25
63 °FLight rain. Partly sunny.16 mph83%30.04 "HgN/A
7:00 AM63 °FLight rain. Broken clouds.21 mph83%30.01 "HgN/A
6:30 AM61 °FLight rain. Broken clouds.15 mph94%30.04 "HgN/A
6:00 AM63 °FLight rain. Broken clouds.15 mph88%30.04 "HgN/A
5:30 AM63 °FSprinkles. Mostly cloudy.14 mph88%30.01 "HgN/A
5:00 AM63 °FSprinkles. Mostly cloudy.13 mph88%30.01 "HgN/A
4:30 AM63 °FOvercast.9 mph88%30.04 "HgN/A
4:00 AM63 °FMostly cloudy.12 mph88%30.01 "HgN/A
3:30 AM63 °FSprinkles. Mostly cloudy.13 mph88%29.98 "HgN/A
3:00 AM63 °FLight rain. Mostly cloudy.12 mph94%30.01 "HgN/A
2:30 AM63 °FLight rain. Overcast.14 mph94%30.01 "HgN/A
2:00 AM61 °FLight rain. Overcast.16 mph100%30.01 "HgN/A
1:30 AM63 °FSprinkles. Overcast.17 mph94%30.01 "HgN/A
1:00 AM63 °FRain showers. Mostly cloudy.15 mph94%30.04 "Hg4 mi
12:30 AM63 °FOvercast.15 mph94%30.01 "HgN/A
12:00 AM63 °FRain showers. Overcast.17 mph94%30.01 "HgN/A
11:00 PM
Sun, May 24
64 °FOvercast.14 mph83%30.04 "HgN/A
10:30 PM66 °FOvercast.13 mph83%30.04 "HgN/A
10:00 PM66 °FOvercast.13 mph78%30.01 "HgN/A
9:30 PM66 °FOvercast.13 mph83%30.04 "HgN/A
9:00 PM66 °FDrizzle. Overcast.13 mph83%30.01 "HgN/A
8:30 PM66 °FOvercast.10 mph83%30.04 "HgN/A
8:00 PM66 °FOvercast.8 mph83%30.04 "HgN/A
7:30 PM66 °FOvercast.8 mph83%30.01 "HgN/A
7:00 PM66 °FOvercast.9 mph83%30.01 "HgN/A
6:30 PM66 °FPassing clouds.9 mph83%30.01 "HgN/A
6:00 PM66 °FSprinkles. Passing clouds.10 mph83%29.98 "HgN/A
5:30 PM66 °FSprinkles. Passing clouds.8 mph88%29.98 "HgN/A
5:00 PM66 °FLight rain. Overcast.9 mph88%29.98 "HgN/A
4:30 PM66 °FLight rain. Overcast.8 mph88%29.98 "HgN/A
4:00 PM68 °FCloudy.7 mph83%29.98 "HgN/A
3:30 PM68 °FSprinkles. Cloudy.7 mph78%29.98 "HgN/A
3:00 PM70 °FSprinkles. Broken clouds.8 mph73%29.98 "HgN/A
2:30 PM70 °FSunny.10 mph69%29.98 "HgN/A
2:00 PM72 °FSprinkles. Partly sunny.10 mph73%29.98 "HgN/A
1:30 PM72 °FBroken clouds.8 mph78%29.98 "HgN/A
1:00 PM72 °FPartly sunny.8 mph78%30.01 "HgN/A
12:30 PM72 °FPartly sunny.7 mph78%30.01 "HgN/A
12:00 PM70 °FSprinkles. Broken clouds.10 mph88%30.01 "HgN/A
11:30 AM70 °FRain showers. Broken clouds.10 mph83%30.04 "HgN/A
11:00 AM70 °FSprinkles. Broken clouds.10 mph83%30.01 "HgN/A
10:30 AM70 °FSprinkles. Mostly cloudy.10 mph83%30.01 "HgN/A
10:00 AM70 °FOvercast.12 mph78%30.01 "HgN/A
9:30 AM70 °FMore clouds than sun.15 mph78%30.01 "HgN/A
9:00 AM70 °FMore clouds than sun.14 mph83%30.01 "HgN/A
8:30 AM68 °FMore clouds than sun.12 mph88%29.98 "HgN/A
8:00 AM68 °FSprinkles. More clouds than sun.12 mph88%29.98 "HgN/A
Weather by CustomWeather, © 2015

See weather overviewHow to use our weather pages